sat.trackr.live / text

‹ back to catalog

STARLINK-30298

NORAD 57665 · 2023-124C

PAYLOAD ACTIVE UNKNOWN

§ Identity

Operator
Country
US
Launch date
2023-08-22
Launch site
AFWTR
Launch vehicle
Mass (kg)
RCS (m²)

Purposes: comms

External: N2YO · Heavens-Above · Gunter

§ Orbital elements

Epoch: 2026-09-20T14:03:13.565952Z

Period
93.85 min
Inclination
53.1592°
Eccentricity
0.0001472
Mean motion
15.34391984 rev/d
Perigee alt
461.7 km
Apogee alt
463.7 km
Semi-major
6,840.9 km
B*
1.6758e-5
RAAN
18.9665°
Arg perigee
92.8866°
Mean anomaly
267.2305°
Rev number
17,344

§ Raw data

STARLINK-302981 57665U 23124C   26263.58557368  .00000190  00000+0  16758-4 0  99972 57665  53.1592  18.9665 0001472  92.8866 267.2305 15.34391984173445

JSON: /api/v1/satellites/57665 · /tle

For live sub-satellite position, see the globe view (requires WebGL).

§ Visibility from observer

Set your observer location to see the next 7 days of passes ≥ 10°. The values pass through the URL so the page stays shareable.

No JS? Fill the form by hand. The geolocation button needs JavaScript.